Wetterdaten: Samstag, 24.01.2015
Datum Zeit Temp. A. Feuchte A. Luftdruck Regen Wind Richtung Richtung Sonnenschein ET UV Solar Taupunkt Windchill Windben Empfang
24.01.2015 00:00 -0,1 C 83 % 1021,6 hPa 0,0 l/m 0,0 km/h (0 Bft) W-SW 250 0 min 0,000 mm 0,0 UV-I 0 W/m -2,6 C -0,1 C 0,0 km/h (0 Bft) 0,00 %
24.01.2015 00:15 -0,1 C 83 % 1021,7 hPa 0,0 l/m 0,0 km/h (0 Bft) W-SW 251 0 min 0,000 mm 0,0 UV-I 0 W/m -2,6 C -0,1 C 0,0 km/h (0 Bft) 0,00 %
24.01.2015 00:30 -0,1 C 83 % 1021,5 hPa 0,3 l/m 0,0 km/h (0 Bft) S-SW 211 0 min 0,000 mm 0,0 UV-I 0 W/m -2,6 C -0,1 C 0,0 km/h (0 Bft) 0,00 %
24.01.2015 00:45 -0,1 C 83 % 1021,5 hPa 0,0 l/m 0,0 km/h (0 Bft) SW 229 0 min 0,000 mm 0,0 UV-I 0 W/m -2,6 C -0,1 C 0,0 km/h (0 Bft) 0,00 %
24.01.2015 01:00 -0,1 C 83 % 1021,4 hPa 0,0 l/m 0,0 km/h (0 Bft) SW 236 0 min 0,000 mm 0,0 UV-I 0 W/m -2,6 C -0,1 C 0,0 km/h (0 Bft) 0,00 %
24.01.2015 01:15 -0,1 C 83 % 1021,1 hPa 0,0 l/m 0,7 km/h (0 Bft) W-SW 256 0 min 0,000 mm 0,0 UV-I 0 W/m -2,6 C -0,1 C 4,0 km/h (1 Bft) 0,00 %
24.01.2015 01:30 0,0 C 83 % 1021,2 hPa 0,0 l/m 1,4 km/h (1 Bft) W-SW 252 0 min 0,000 mm 0,0 UV-I 0 W/m -2,5 C 0,0 C 4,0 km/h (1 Bft) 0,00 %
24.01.2015 01:45 -0,1 C 83 % 1021,4 hPa 0,0 l/m 0,4 km/h (0 Bft) W-SW 252 0 min 0,000 mm 0,0 UV-I 0 W/m -2,6 C -0,1 C 4,0 km/h (1 Bft) 0,00 %
24.01.2015 02:00 -0,1 C 83 % 1021,3 hPa 0,0 l/m 0,0 km/h (0 Bft) W-SW 252 0 min 0,000 mm 0,0 UV-I 0 W/m -2,6 C -0,1 C 0,0 km/h (0 Bft) 0,00 %
24.01.2015 02:15 -0,1 C 83 % 1021,4 hPa 0,0 l/m 0,7 km/h (0 Bft) W-SW 240 0 min 0,000 mm 0,0 UV-I 0 W/m -2,6 C -0,1 C 4,0 km/h (1 Bft) 0,00 %
24.01.2015 02:30 -0,1 C 83 % 1021,2 hPa 0,0 l/m 0,0 km/h (0 Bft) W-SW 256 0 min 0,000 mm 0,0 UV-I 0 W/m -2,6 C -0,1 C 0,0 km/h (0 Bft) 0,00 %
24.01.2015 02:45 -0,2 C 83 % 1021,3 hPa 0,0 l/m 0,0 km/h (0 Bft) SW 228 0 min 0,000 mm 0,0 UV-I 0 W/m -2,7 C -0,2 C 0,0 km/h (0 Bft) 0,00 %
24.01.2015 03:00 -0,2 C 83 % 1021,1 hPa 0,0 l/m 0,0 km/h (0 Bft) SW 231 0 min 0,000 mm 0,0 UV-I 0 W/m -2,7 C -0,2 C 0,0 km/h (0 Bft) 0,00 %
24.01.2015 03:15 -0,2 C 83 % 1021,0 hPa 0,0 l/m 0,0 km/h (0 Bft) S-SW 203 0 min 0,000 mm 0,0 UV-I 0 W/m -2,7 C -0,2 C 0,0 km/h (0 Bft) 0,00 %
24.01.2015 03:30 -0,2 C 83 % 1021,1 hPa 0,0 l/m 1,8 km/h (1 Bft) W-SW 252 0 min 0,000 mm 0,0 UV-I 0 W/m -2,7 C -0,2 C 4,0 km/h (1 Bft) 0,00 %
24.01.2015 03:45 -0,2 C 83 % 1020,8 hPa 0,0 l/m 0,4 km/h (0 Bft) SW 216 0 min 0,000 mm 0,0 UV-I 0 W/m -2,7 C -0,2 C 4,0 km/h (1 Bft) 0,00 %
24.01.2015 04:00 -0,2 C 83 % 1020,8 hPa 0,0 l/m 0,0 km/h (0 Bft) SW 224 0 min 0,000 mm 0,0 UV-I 0 W/m -2,7 C -0,2 C 0,0 km/h (0 Bft) 0,00 %
24.01.2015 04:15 -0,3 C 83 % 1020,7 hPa 0,0 l/m 0,4 km/h (0 Bft) W-SW 252 0 min 0,000 mm 0,0 UV-I 0 W/m -2,8 C -0,3 C 4,0 km/h (1 Bft) 0,00 %
24.01.2015 04:30 -0,3 C 83 % 1020,5 hPa 0,0 l/m 0,0 km/h (0 Bft) S-SW 207 0 min 0,000 mm 0,0 UV-I 0 W/m -2,8 C -0,3 C 0,0 km/h (0 Bft) 0,00 %
24.01.2015 04:45 -0,2 C 83 % 1020,3 hPa 0,0 l/m 0,0 km/h (0 Bft) S-SW 200 0 min 0,000 mm 0,0 UV-I 0 W/m -2,7 C -0,2 C 0,0 km/h (0 Bft) 0,00 %
24.01.2015 05:00 -0,3 C 83 % 1020,3 hPa 0,0 l/m 0,0 km/h (0 Bft) SW 233 0 min 0,000 mm 0,0 UV-I 0 W/m -2,8 C -0,3 C 0,0 km/h (0 Bft) 0,00 %
24.01.2015 05:15 -0,2 C 83 % 1020,2 hPa 0,0 l/m 0,0 km/h (0 Bft) S-SW 202 0 min 0,000 mm 0,0 UV-I 0 W/m -2,7 C -0,2 C 0,0 km/h (0 Bft) 0,00 %
24.01.2015 05:30 -0,3 C 83 % 1020,0 hPa 0,0 l/m 0,0 km/h (0 Bft) W-SW 243 0 min 0,000 mm 0,0 UV-I 0 W/m -2,8 C -0,3 C 0,0 km/h (0 Bft) 0,00 %
24.01.2015 05:45 -0,3 C 83 % 1020,1 hPa 0,0 l/m 0,4 km/h (0 Bft) W-SW 252 0 min 0,000 mm 0,0 UV-I 0 W/m -2,8 C -0,3 C 4,0 km/h (1 Bft) 0,00 %
24.01.2015 06:00 -0,3 C 83 % 1020,0 hPa 0,0 l/m 0,7 km/h (0 Bft) W-SW 252 0 min 0,000 mm 0,0 UV-I 0 W/m -2,8 C -0,3 C 4,0 km/h (1 Bft) 0,00 %
24.01.2015 06:15 -0,3 C 82 % 1019,9 hPa 0,0 l/m 0,0 km/h (0 Bft) SW 233 0 min 0,000 mm 0,0 UV-I 0 W/m -3,0 C -0,3 C 0,0 km/h (0 Bft) 0,00 %
24.01.2015 06:30 -0,3 C 82 % 1019,9 hPa 0,0 l/m 0,4 km/h (0 Bft) SW 236 0 min 0,000 mm 0,0 UV-I 0 W/m -3,0 C -0,3 C 4,0 km/h (1 Bft) 0,00 %
24.01.2015 06:45 -0,3 C 82 % 1019,9 hPa 0,0 l/m 0,4 km/h (0 Bft) W-NW 296 0 min 0,000 mm 0,0 UV-I 0 W/m -3,0 C -0,3 C 4,0 km/h (1 Bft) 0,00 %
24.01.2015 07:00 -0,3 C 82 % 1019,9 hPa 0,0 l/m 0,4 km/h (0 Bft) W-NW 295 0 min 0,000 mm 0,0 UV-I 0 W/m -3,0 C -0,3 C 4,0 km/h (1 Bft) 0,00 %
24.01.2015 07:15 -0,3 C 82 % 1020,1 hPa 0,0 l/m 0,0 km/h (0 Bft) W-NW 295 0 min 0,000 mm 0,0 UV-I 0 W/m -3,0 C -0,3 C 0,0 km/h (0 Bft) 0,00 %
24.01.2015 07:30 -0,3 C 82 % 1020,0 hPa 0,0 l/m 0,4 km/h (0 Bft) W-NW 295 0 min 0,000 mm 0,0 UV-I 0 W/m -3,0 C -0,3 C 4,0 km/h (1 Bft) 0,00 %
24.01.2015 07:45 -0,3 C 82 % 1020,1 hPa 0,3 l/m 0,0 km/h (0 Bft) W-NW 295 0 min 0,000 mm 0,0 UV-I 0 W/m -3,0 C -0,3 C 0,0 km/h (0 Bft) 0,00 %
24.01.2015 08:00 -0,3 C 82 % 1019,9 hPa 0,0 l/m 0,4 km/h (0 Bft) W-NW 295 0 min 0,000 mm 0,0 UV-I 0 W/m -3,0 C -0,3 C 4,0 km/h (1 Bft) 0,00 %
24.01.2015 08:15 -0,3 C 82 % 1020,0 hPa 0,0 l/m 0,0 km/h (0 Bft) W-NW 295 0 min 0,000 mm 0,0 UV-I 0 W/m -3,0 C -0,3 C 0,0 km/h (0 Bft) 0,00 %
24.01.2015 08:30 -0,3 C 82 % 1020,1 hPa 0,0 l/m 0,0 km/h (0 Bft) W-NW 295 0 min 0,000 mm 0,0 UV-I 0 W/m -3,0 C -0,3 C 0,0 km/h (0 Bft) 0,00 %
24.01.2015 08:45 -0,3 C 82 % 1020,0 hPa 0,0 l/m 0,0 km/h (0 Bft) W-NW 295 0 min 0,000 mm 0,0 UV-I 0 W/m -3,0 C -0,3 C 0,0 km/h (0 Bft) 0,00 %
24.01.2015 09:00 -0,3 C 82 % 1019,9 hPa 0,0 l/m 0,0 km/h (0 Bft) W-NW 295 0 min 0,000 mm 0,0 UV-I 0 W/m -3,0 C -0,3 C 0,0 km/h (0 Bft) 0,00 %
24.01.2015 09:15 -0,2 C 82 % 1020,0 hPa 0,0 l/m 0,0 km/h (0 Bft) W-NW 287 0 min 0,000 mm 0,0 UV-I 0 W/m -2,9 C -0,2 C 0,0 km/h (0 Bft) 0,00 %
24.01.2015 09:30 -0,3 C 82 % 1019,7 hPa 0,0 l/m 0,7 km/h (0 Bft) W-SW 255 0 min 0,000 mm 0,0 UV-I 0 W/m -3,0 C -0,3 C 4,0 km/h (1 Bft) 0,00 %
24.01.2015 09:45 -0,3 C 82 % 1019,6 hPa 0,0 l/m 0,0 km/h (0 Bft) W-SW 255 0 min 0,000 mm 0,0 UV-I 0 W/m -3,0 C -0,3 C 0,0 km/h (0 Bft) 0,00 %
24.01.2015 10:00 -0,2 C 82 % 1019,9 hPa 0,0 l/m 0,4 km/h (0 Bft) W-SW 254 0 min 0,000 mm 0,0 UV-I 0 W/m -2,9 C -0,2 C 4,0 km/h (1 Bft) 0,00 %
24.01.2015 10:15 -0,2 C 82 % 1019,6 hPa 0,0 l/m 0,0 km/h (0 Bft) SW 225 0 min 0,000 mm 0,0 UV-I 0 W/m -2,9 C -0,2 C 0,0 km/h (0 Bft) 0,00 %
24.01.2015 10:30 -0,2 C 82 % 1019,7 hPa 0,0 l/m 0,0 km/h (0 Bft) S-SW 210 0 min 0,000 mm 0,0 UV-I 0 W/m -2,9 C -0,2 C 0,0 km/h (0 Bft) 0,00 %
24.01.2015 10:45 -0,1 C 82 % 1019,6 hPa 0,0 l/m 0,0 km/h (0 Bft) S-SW 208 0 min 0,000 mm 0,0 UV-I 0 W/m -2,8 C -0,1 C 0,0 km/h (0 Bft) 0,00 %
24.01.2015 11:00 -0,1 C 82 % 1019,4 hPa 0,0 l/m 0,0 km/h (0 Bft) SW 225 0 min 0,000 mm 0,0 UV-I 0 W/m -2,8 C -0,1 C 0,0 km/h (0 Bft) 0,00 %
24.01.2015 11:15 -0,1 C 82 % 1019,2 hPa 0,0 l/m 0,4 km/h (0 Bft) SW 227 0 min 0,000 mm 0,0 UV-I 0 W/m -2,8 C -0,1 C 4,0 km/h (1 Bft) 0,00 %
24.01.2015 11:30 -0,1 C 82 % 1019,0 hPa 0,0 l/m 0,0 km/h (0 Bft) S 181 0 min 0,000 mm 0,0 UV-I 0 W/m -2,8 C -0,1 C 0,0 km/h (0 Bft) 0,00 %
24.01.2015 11:45 -0,1 C 82 % 1018,7 hPa 0,0 l/m 0,0 km/h (0 Bft) W-SW 255 0 min 0,000 mm 0,0 UV-I 8 W/m -2,8 C -0,1 C 0,0 km/h (0 Bft) 0,00 %
24.01.2015 12:00 -0,1 C 82 % 1018,6 hPa 0,0 l/m 1,4 km/h (1 Bft) SW 236 0 min 0,000 mm 0,0 UV-I 12 W/m -2,8 C -0,1 C 4,0 km/h (1 Bft) 0,00 %
24.01.2015 12:15 -0,1 C 81 % 1018,5 hPa 0,0 l/m 0,0 km/h (0 Bft) W-SW 255 0 min 0,000 mm 0,0 UV-I 0 W/m -3,0 C -0,1 C 0,0 km/h (0 Bft) 0,00 %
24.01.2015 12:30 -0,1 C 81 % 1018,3 hPa 0,0 l/m 0,0 km/h (0 Bft) SW 214 0 min 0,000 mm 0,0 UV-I 0 W/m -3,0 C -0,1 C 0,0 km/h (0 Bft) 0,00 %
24.01.2015 12:45 0,0 C 81 % 1018,1 hPa 0,0 l/m 0,0 km/h (0 Bft) W-SW 250 0 min 0,000 mm 0,0 UV-I 4 W/m -2,9 C 0,0 C 0,0 km/h (0 Bft) 0,00 %
24.01.2015 13:00 0,0 C 81 % 1017,8 hPa 0,0 l/m 0,0 km/h (0 Bft) W-SW 255 0 min 0,000 mm 0,0 UV-I 13 W/m -2,9 C 0,0 C 0,0 km/h (0 Bft) 0,00 %
24.01.2015 13:15 -0,1 C 81 % 1017,8 hPa 0,0 l/m 0,0 km/h (0 Bft) S 189 0 min 0,000 mm 0,0 UV-I 19 W/m -3,0 C -0,1 C 0,0 km/h (0 Bft) 0,00 %
24.01.2015 13:30 -0,1 C 81 % 1017,6 hPa 0,0 l/m 0,7 km/h (0 Bft) W-SW 250 0 min 0,000 mm 0,0 UV-I 0 W/m -3,0 C -0,1 C 4,0 km/h (1 Bft) 0,00 %
24.01.2015 13:45 -0,1 C 80 % 1017,3 hPa 0,3 l/m 1,8 km/h (1 Bft) SW 228 0 min 0,000 mm 0,0 UV-I 1 W/m -3,1 C -0,1 C 4,0 km/h (1 Bft) 0,00 %
24.01.2015 14:00 -0,2 C 80 % 1017,7 hPa 0,0 l/m 0,7 km/h (0 Bft) SW 214 0 min 0,000 mm 0,0 UV-I 0 W/m -3,2 C -0,2 C 4,0 km/h (1 Bft) 0,00 %
24.01.2015 14:15 -0,2 C 80 % 1017,4 hPa 0,0 l/m 0,0 km/h (0 Bft) SW 228 0 min 0,000 mm 0,0 UV-I 0 W/m -3,2 C -0,2 C 0,0 km/h (0 Bft) 0,00 %
24.01.2015 14:30 -0,2 C 80 % 1017,4 hPa 0,0 l/m 0,0 km/h (0 Bft) SW 222 0 min 0,000 mm 0,0 UV-I 0 W/m -3,2 C -0,2 C 0,0 km/h (0 Bft) 0,00 %
24.01.2015 14:45 -0,3 C 80 % 1017,3 hPa 0,0 l/m 0,0 km/h (0 Bft) W-SW 256 0 min 0,000 mm 0,0 UV-I 0 W/m -3,3 C -0,3 C 0,0 km/h (0 Bft) 0,00 %
24.01.2015 15:00 -0,4 C 80 % 1017,3 hPa 0,0 l/m 0,0 km/h (0 Bft) W-SW 256 0 min 0,000 mm 0,0 UV-I 0 W/m -3,4 C -0,4 C 0,0 km/h (0 Bft) 0,00 %
24.01.2015 15:15 -0,4 C 81 % 1017,5 hPa 0,0 l/m 5,8 km/h (2 Bft) W-SW 256 0 min 0,000 mm 0,0 UV-I 0 W/m -3,3 C -0,4 C 7,9 km/h (2 Bft) 0,00 %
24.01.2015 15:30 -0,5 C 81 % 1017,6 hPa 0,0 l/m 2,2 km/h (1 Bft) W-SW 252 0 min 0,000 mm 0,0 UV-I 0 W/m -3,3 C -0,5 C 4,0 km/h (1 Bft) 0,00 %
24.01.2015 15:45 -0,5 C 80 % 1017,6 hPa 0,0 l/m 6,5 km/h (2 Bft) W-SW 252 0 min 0,000 mm 0,0 UV-I 0 W/m -3,5 C -0,6 C 7,9 km/h (2 Bft) 0,00 %
24.01.2015 16:00 -0,5 C 80 % 1017,5 hPa 0,0 l/m 4,0 km/h (1 Bft) W-SW 252 0 min 0,000 mm 0,0 UV-I 0 W/m -3,5 C -0,5 C 7,9 km/h (2 Bft) 0,00 %
24.01.2015 16:15 -0,5 C 80 % 1017,6 hPa 0,0 l/m 1,8 km/h (1 Bft) W-SW 251 0 min 0,000 mm 0,0 UV-I 0 W/m -3,5 C -0,5 C 4,0 km/h (1 Bft) 0,00 %
24.01.2015 16:30 -0,5 C 80 % 1017,7 hPa 0,0 l/m 0,0 km/h (0 Bft) W-SW 251 0 min 0,000 mm 0,0 UV-I 0 W/m -3,5 C -0,5 C 0,0 km/h (0 Bft) 0,00 %
24.01.2015 16:45 -0,5 C 79 % 1017,9 hPa 0,0 l/m 0,4 km/h (0 Bft) W-SW 250 0 min 0,000 mm 0,0 UV-I 0 W/m -3,7 C -0,5 C 4,0 km/h (1 Bft) 0,00 %
24.01.2015 17:00 -0,5 C 80 % 1018,0 hPa 0,0 l/m 0,0 km/h (0 Bft) W-SW 250 0 min 0,000 mm 0,0 UV-I 0 W/m -3,5 C -0,5 C 0,0 km/h (0 Bft) 0,00 %
24.01.2015 17:15 -0,5 C 81 % 1018,1 hPa 0,0 l/m 1,4 km/h (1 Bft) W-SW 250 0 min 0,000 mm 0,0 UV-I 0 W/m -3,3 C -0,5 C 4,0 km/h (1 Bft) 0,00 %
24.01.2015 17:30 -0,5 C 78 % 1018,2 hPa 0,0 l/m 0,7 km/h (0 Bft) W-SW 250 0 min 0,000 mm 0,0 UV-I 0 W/m -3,9 C -0,5 C 4,0 km/h (1 Bft) 0,00 %
24.01.2015 17:45 -0,5 C 77 % 1018,3 hPa 0,0 l/m 1,8 km/h (1 Bft) W-SW 250 0 min 0,000 mm 0,0 UV-I 0 W/m -4,0 C -0,5 C 7,9 km/h (2 Bft) 0,00 %
24.01.2015 18:00 -0,5 C 77 % 1018,4 hPa 0,0 l/m 2,2 km/h (1 Bft) W-SW 250 0 min 0,000 mm 0,0 UV-I 0 W/m -4,0 C -0,5 C 4,0 km/h (1 Bft) 0,00 %
24.01.2015 18:15 -0,5 C 77 % 1018,5 hPa 0,0 l/m 3,2 km/h (1 Bft) W-SW 250 0 min 0,000 mm 0,0 UV-I 0 W/m -4,0 C -0,5 C 4,0 km/h (1 Bft) 0,00 %
24.01.2015 18:30 -0,5 C 78 % 1018,8 hPa 0,0 l/m 0,0 km/h (0 Bft) W-SW 250 0 min 0,000 mm 0,0 UV-I 0 W/m -3,9 C -0,5 C 0,0 km/h (0 Bft) 0,00 %
24.01.2015 18:45 -0,5 C 78 % 1018,9 hPa 0,0 l/m 2,2 km/h (1 Bft) W-SW 250 0 min 0,000 mm 0,0 UV-I 0 W/m -3,9 C -0,5 C 4,0 km/h (1 Bft) 0,00 %
24.01.2015 19:00 -0,5 C 79 % 1018,9 hPa 0,0 l/m 1,4 km/h (1 Bft) W-SW 250 0 min 0,000 mm 0,0 UV-I 0 W/m -3,7 C -0,5 C 4,0 km/h (1 Bft) 0,00 %
24.01.2015 19:15 -0,5 C 79 % 1019,1 hPa 0,0 l/m 0,0 km/h (0 Bft) W-SW 250 0 min 0,000 mm 0,0 UV-I 0 W/m -3,7 C -0,5 C 0,0 km/h (0 Bft) 0,00 %
24.01.2015 19:30 -0,5 C 80 % 1019,3 hPa 0,0 l/m 0,0 km/h (0 Bft) W-SW 250 0 min 0,000 mm 0,0 UV-I 0 W/m -3,5 C -0,5 C 0,0 km/h (0 Bft) 0,00 %
24.01.2015 19:45 -0,6 C 80 % 1019,3 hPa 0,0 l/m 0,4 km/h (0 Bft) W-SW 250 0 min 0,000 mm 0,0 UV-I 0 W/m -3,6 C -0,6 C 4,0 km/h (1 Bft) 0,00 %
24.01.2015 20:00 -0,6 C 80 % 1019,5 hPa 0,0 l/m 0,0 km/h (0 Bft) W-SW 250 0 min 0,000 mm 0,0 UV-I 0 W/m -3,6 C -0,6 C 0,0 km/h (0 Bft) 0,00 %
24.01.2015 20:15 -0,6 C 79 % 1019,6 hPa 0,0 l/m 4,3 km/h (1 Bft) W-SW 250 0 min 0,000 mm 0,0 UV-I 0 W/m -3,8 C -0,6 C 7,9 km/h (2 Bft) 0,00 %
24.01.2015 20:30 -0,6 C 78 % 1019,7 hPa 0,0 l/m 4,0 km/h (1 Bft) W-SW 250 0 min 0,000 mm 0,0 UV-I 0 W/m -3,9 C -0,6 C 7,9 km/h (2 Bft) 0,00 %
24.01.2015 20:45 -0,6 C 79 % 1019,8 hPa 0,0 l/m 4,3 km/h (1 Bft) W-SW 250 0 min 0,000 mm 0,0 UV-I 0 W/m -3,8 C -0,6 C 7,9 km/h (2 Bft) 0,00 %
24.01.2015 21:00 -0,6 C 78 % 1020,0 hPa 0,0 l/m 0,0 km/h (0 Bft) W-SW 250 0 min 0,000 mm 0,0 UV-I 0 W/m -3,9 C -0,6 C 0,0 km/h (0 Bft) 0,00 %
24.01.2015 21:15 -0,7 C 77 % 1020,0 hPa 0,0 l/m 0,4 km/h (0 Bft) W-SW 250 0 min 0,000 mm 0,0 UV-I 0 W/m -4,2 C -0,7 C 4,0 km/h (1 Bft) 0,00 %
24.01.2015 21:30 -0,7 C 75 % 1020,5 hPa 0,0 l/m 0,7 km/h (0 Bft) W-SW 250 0 min 0,000 mm 0,0 UV-I 0 W/m -4,6 C -0,7 C 4,0 km/h (1 Bft) 0,00 %
24.01.2015 21:45 -0,7 C 75 % 1020,4 hPa 0,0 l/m 0,7 km/h (0 Bft) W-SW 250 0 min 0,000 mm 0,0 UV-I 0 W/m -4,6 C -0,7 C 4,0 km/h (1 Bft) 0,00 %
24.01.2015 22:00 -0,8 C 75 % 1020,5 hPa 0,0 l/m 2,2 km/h (1 Bft) W-SW 250 0 min 0,000 mm 0,0 UV-I 0 W/m -4,7 C -0,8 C 4,0 km/h (1 Bft) 0,00 %
24.01.2015 22:15 -0,8 C 75 % 1020,5 hPa 0,0 l/m 0,7 km/h (0 Bft) W-SW 250 0 min 0,000 mm 0,0 UV-I 0 W/m -4,7 C -0,8 C 4,0 km/h (1 Bft) 0,00 %
24.01.2015 22:30 -0,8 C 75 % 1020,7 hPa 0,0 l/m 0,4 km/h (0 Bft) W-SW 250 0 min 0,000 mm 0,0 UV-I 0 W/m -4,7 C -0,8 C 4,0 km/h (1 Bft) 0,00 %
24.01.2015 22:45 -0,8 C 75 % 1020,8 hPa 0,0 l/m 0,4 km/h (0 Bft) W-SW 250 0 min 0,000 mm 0,0 UV-I 0 W/m -4,7 C -0,8 C 4,0 km/h (1 Bft) 0,00 %
24.01.2015 23:00 -0,8 C 75 % 1020,9 hPa 0,0 l/m 4,3 km/h (1 Bft) W-SW 250 0 min 0,000 mm 0,0 UV-I 0 W/m -4,7 C -0,8 C 7,9 km/h (2 Bft) 0,00 %
24.01.2015 23:15 -0,9 C 75 % 1021,0 hPa 0,0 l/m 0,7 km/h (0 Bft) W-SW 250 0 min 0,000 mm 0,0 UV-I 0 W/m -4,8 C -0,9 C 4,0 km/h (1 Bft) 0,00 %
24.01.2015 23:30 -1,0 C 75 % 1021,1 hPa 0,0 l/m 8,3 km/h (2 Bft) W-SW 250 0 min 0,000 mm 0,0 UV-I 0 W/m -4,9 C -3,0 C 15,8 km/h (3 Bft) 0,00 %
24.01.2015 23:45 -1,0 C 75 % 1021,0 hPa 0,0 l/m 0,7 km/h (0 Bft) W-SW 250 0 min 0,000 mm 0,0 UV-I 0 W/m -4,9 C -1,0 C 4,0 km/h (1 Bft) 0,00 %
_ Min-Zeit 23:30 21:30 13:45 - 00:00 - - - - - - 23:30 23:30 00:00 00:00
Minimum _ -1,0 C 75 % 1017,3 hPa - 0,0 km/h (0 Bft) - - - - - - -4,9 C -3,0 C 0,0 km/h (0 Bft) 0,00 %
_ Max-Zeit 01:30 00:00 00:15 00:30 23:30 - - 00:00 00:00 00:00 13:15 01:30 01:30 23:30 00:00
Maximum _ 0,0 C 83 % 1021,7 hPa 0,3 l/m 8,3 km/h
W-SW (2 Bft)
- - 0 min 0,000 mm 0,0 UV-I 19 W/m -2,5 C 0,0 C 15,8 km/h
W-SW (3 Bft)
0,00 %
Durchschnitt _ -0,3 C 81 % 1019,6 hPa #0,9 l/m 0,9 km/h (0 Bft) W-SW - #0 min. #0,000 mm 0,0 UV-I 10 W/m -3,3 C -0,4 C 2,5 km/h (1 Bft) 0,00 %